TimeEEST,TemperatureF,Dew PointF,Humidity,Sea Level PressureIn,VisibilityMPH,Wind Direction,Wind SpeedMPH,Gust SpeedMPH,PrecipitationIn,Events,Conditions,WindDirDegrees,DateUTC
12:50 AM,64.4,59.0,83,29.83,6.2,Calm,Calm,-,N/A,,Mostly Cloudy,0,2012-10-09 21:50:00
2:50 AM,66.2,59.0,78,29.83,6.2,Calm,Calm,-,N/A,,Mostly Cloudy,0,2012-10-09 23:50:00
3:00 AM,67,59,70,29.84,6,Calm,Calm,,,,Scattered Clouds,,2012-10-10 00:00:00
4:20 AM,64.4,59.0,83,29.83,6.2,Calm,Calm,-,N/A,,Mostly Cloudy,0,2012-10-10 01:20:00
4:50 AM,66.2,60.8,83,29.83,6.2,Calm,Calm,-,N/A,,Mostly Cloudy,0,2012-10-10 01:50:00
5:50 AM,64.4,59.0,83,29.80,6.2,Calm,Calm,-,N/A,,Mostly Cloudy,0,2012-10-10 02:50:00
6:20 AM,68.0,62.6,83,29.80,6.2,Calm,Calm,-,N/A,,Mostly Cloudy,0,2012-10-10 03:20:00
6:50 AM,68.0,62.6,83,29.80,6.2,East,6.9,-,N/A,,Mostly Cloudy,100,2012-10-10 03:50:00
7:50 AM,66.2,62.6,88,29.80,6.2,East,6.9,-,N/A,,Mostly Cloudy,80,2012-10-10 04:50:00
8:20 AM,68.0,62.6,83,29.80,6.2,East,6.9,-,N/A,,Mostly Cloudy,90,2012-10-10 05:20:00
8:50 AM,68.0,62.6,83,29.80,6.2,East,4.6,-,N/A,,Mostly Cloudy,80,2012-10-10 05:50:00
9:00 AM,68,63,78,29.82,6,East,4.6,,,,Partly Cloudy,80,2012-10-10 06:00:00
9:20 AM,71.6,62.6,73,29.80,6.2,East,4.6,-,N/A,,Mostly Cloudy,80,2012-10-10 06:20:00
9:50 AM,71.6,60.8,69,29.83,6.2,East,4.6,-,N/A,,Mostly Cloudy,80,2012-10-10 06:50:00
10:20 AM,71.6,62.6,73,29.83,6.2,ENE,4.6,-,N/A,,Mostly Cloudy,70,2012-10-10 07:20:00
10:50 AM,75.2,59.0,57,29.83,6.2,ENE,4.6,-,N/A,,Scattered Clouds,60,2012-10-10 07:50:00
11:20 AM,75.2,60.8,61,29.83,6.2,NE,5.8,-,N/A,,Mostly Cloudy,50,2012-10-10 08:20:00
11:50 AM,75.2,60.8,61,29.83,6.2,NE,5.8,-,N/A,,Mostly Cloudy,40,2012-10-10 08:50:00
12:20 PM,75.2,60.8,61,29.83,6.2,NE,5.8,-,N/A,,Mostly Cloudy,40,2012-10-10 09:20:00
12:50 PM,75.2,59.0,57,29.83,6.2,Variable,3.5,-,N/A,,Mostly Cloudy,0,2012-10-10 09:50:00
1:20 PM,77.0,59.0,54,29.80,6.2,Calm,Calm,-,N/A,,Scattered Clouds,0,2012-10-10 10:20:00
1:50 PM,77.0,59.0,54,29.80,6.2,Variable,3.5,-,N/A,,Mostly Cloudy,0,2012-10-10 10:50:00
2:20 PM,77.0,59.0,54,29.80,6.2,WNW,4.6,-,N/A,,Mostly Cloudy,290,2012-10-10 11:20:00
2:50 PM,78.8,59.0,51,29.80,6.2,WNW,5.8,-,N/A,,Mostly Cloudy,290,2012-10-10 11:50:00
3:00 PM,78,58,41,29.80,6,WNW,5.8,,,,Partly Cloudy,290,2012-10-10 12:00:00
3:20 PM,78.8,57.2,47,29.77,6.2,WNW,6.9,-,N/A,,Scattered Clouds,290,2012-10-10 12:20:00
3:50 PM,78.8,57.2,47,29.77,6.2,WNW,6.9,-,N/A,,Scattered Clouds,290,2012-10-10 12:50:00
4:20 PM,77.0,59.0,54,29.77,6.2,WNW,6.9,-,N/A,,Scattered Clouds,300,2012-10-10 13:20:00
4:50 PM,77.0,59.0,54,29.77,6.2,WNW,8.1,-,N/A,,Scattered Clouds,300,2012-10-10 13:50:00
5:20 PM,75.2,60.8,61,29.77,6.2,WNW,9.2,-,N/A,,Scattered Clouds,300,2012-10-10 14:20:00
5:50 PM,73.4,60.8,65,29.77,6.2,NW,6.9,-,N/A,,Scattered Clouds,320,2012-10-10 14:50:00
6:20 PM,73.4,60.8,65,29.77,6.2,NW,5.8,-,N/A,,Scattered Clouds,320,2012-10-10 15:20:00
6:50 PM,73.4,59.0,61,29.80,6.2,WNW,4.6,-,N/A,,Scattered Clouds,290,2012-10-10 15:50:00
7:20 PM,71.6,59.0,64,29.80,6.2,West,4.6,-,N/A,,Scattered Clouds,280,2012-10-10 16:20:00
7:50 PM,71.6,59.0,64,29.80,6.2,NNE,4.6,-,N/A,,Mostly Cloudy,20,2012-10-10 16:50:00
8:20 PM,69.8,59.0,68,29.80,6.2,ENE,4.6,-,N/A,,Mostly Cloudy,60,2012-10-10 17:20:00
8:50 PM,69.8,57.2,64,29.80,6.2,ENE,6.9,-,N/A,,Scattered Clouds,60,2012-10-10 17:50:00
9:00 PM,69,58,59,29.82,6,ENE,6.9,,,,Scattered Clouds,60,2012-10-10 18:00:00
9:50 PM,66.2,57.2,73,29.83,6.2,ENE,8.1,-,N/A,,Scattered Clouds,60,2012-10-10 18:50:00
10:50 PM,66.2,60.8,83,29.83,6.2,NE,4.6,-,N/A,,Scattered Clouds,40,2012-10-10 19:50:00
11:50 PM,68.0,57.2,68,29.83,6.2,ENE,6.9,-,N/A,,Scattered Clouds,60,2012-10-10 20:50:00